When you browse on this site, cookies collect data to enhance your experience and personalize the content and advertising you see.
Visit our Privacy Policy to learn more. By continuing to use the site, you agree to this use of cookies and data.
  • In Romania
  • List of Countries
  • For 7 days
  • Water Temperature
  • Satellite Maps
  • Weather Map
  • Weather Widgets
  • user-avatar
    Login

    Hourly Weather Manosque

    Today, 19 April, Friday

    Time Temperature Precipitation Wind Pressure Humidity
    00:00 +13°C° 0 mm 2 mps 734 mmHg 53%
    01:00 +13°C° 0 mm 2 mps 734 mmHg 57%
    02:00 +12°C° 0 mm 2 mps 734 mmHg 61%
    03:00 +12°C° 0 mm 2 mps 734 mmHg 65%
    04:00 +12°C° 0 mm 2 mps 734 mmHg 67%
    05:00 +12°C° 0 mm 2 mps 734 mmHg 69%
    06:00 +13°C° 0 mm 2 mps 735 mmHg 71%
    07:00 +14°C° 0 mm 3 mps 735 mmHg 60%
    08:00 +17°C° 0 mm 3 mps 736 mmHg 49%
    09:00 +20°C° 0 mm 4 mps 736 mmHg 38%
    10:00 +20°C° 0 mm 4 mps 736 mmHg 35%
    11:00 +21°C° 0 mm 4 mps 736 mmHg 33%
    12:00 +22°C° 0 mm 5 mps 737 mmHg 30%
    13:00 +22°C° 0 mm 5 mps 736 mmHg 32%
    14:00 +21°C° 0 mm 5 mps 736 mmHg 33%
    15:00 +21°C° 0 mm 5 mps 736 mmHg 34%
    16:00 +19°C° 0 mm 4 mps 736 mmHg 40%
    17:00 +18°C° 0 mm 3 mps 736 mmHg 45%
    18:00 +16°C° 0 mm 2 mps 736 mmHg 50%
    19:00 +15°C° 0 mm 2 mps 736 mmHg 54%
    20:00 +14°C° 0 mm 2 mps 736 mmHg 57%
    21:00 +13°C° 0 mm 1 mps 736 mmHg 60%
    22:00 +12°C° 0 mm 1 mps 736 mmHg 62%
    23:00 +12°C° 0 mm 1 mps 736 mmHg 64%

    Tomorrow, 20 April, Saturday

    Time Temperature Precipitation Wind Pressure Humidity
    00:00 +12°C° 0 mm 1 mps 736 mmHg 66%
    01:00 +12°C° 0 mm 1 mps 736 mmHg 67%
    02:00 +11°C° 0 mm 1 mps 736 mmHg 68%
    03:00 +11°C° 0 mm 1 mps 735 mmHg 70%
    04:00 +11°C° 0 mm 1 mps 735 mmHg 68%
    05:00 +12°C° 0 mm 2 mps 735 mmHg 67%
    06:00 +12°C° 0 mm 2 mps 735 mmHg 66%
    07:00 +15°C° 0 mm 2 mps 735 mmHg 57%
    08:00 +17°C° 0 mm 2 mps 735 mmHg 48%
    09:00 +19°C° 0 mm 2 mps 735 mmHg 39%
    10:00 +20°C° 0 mm 2 mps 735 mmHg 36%
    11:00 +21°C° 0 mm 2 mps 735 mmHg 33%
    12:00 +22°C° 0 mm 3 mps 735 mmHg 30%
    13:00 +22°C° 0 mm 3 mps 734 mmHg 31%
    14:00 +22°C° 0 mm 4 mps 734 mmHg 32%
    15:00 +22°C° 0 mm 4 mps 733 mmHg 33%
    16:00 +20°C° 0 mm 4 mps 733 mmHg 39%
    17:00 +19°C° 0 mm 3 mps 733 mmHg 44%
    18:00 +17°C° 0 mm 2 mps 733 mmHg 50%
    19:00 +16°C° 0 mm 2 mps 733 mmHg 52%
    20:00 +15°C° 0 mm 2 mps 733 mmHg 54%
    21:00 +15°C° 0 mm 1 mps 733 mmHg 56%
    22:00 +15°C° 0 mm 2 mps 733 mmHg 56%
    23:00 +14°C° 0 mm 2 mps 733 mmHg 56%

    Day after tomorrow, 21 April, Sunday

    Time Temperature Precipitation Wind Pressure Humidity
    00:00 +14°C° 0 mm 2 mps 733 mmHg 56%
    01:00 +14°C° 0 mm 2 mps 732 mmHg 55%
    02:00 +14°C° 0 mm 2 mps 732 mmHg 54%
    03:00 +14°C° 0 mm 2 mps 732 mmHg 53%
    04:00 +14°C° 0 mm 2 mps 731 mmHg 54%
    05:00 +14°C° 0 mm 1 mps 731 mmHg 55%
    06:00 +14°C° 0 mm 1 mps 731 mmHg 57%
    07:00 +15°C° 0 mm 2 mps 731 mmHg 54%
    08:00 +14°C° 0 mm 3 mps 731 mmHg 52%
    09:00 +16°C° 0 mm 3 mps 731 mmHg 50%
    10:00 +16°C° 0.1 mm 3 mps 731 mmHg 50%
    11:00 +17°C° 0.1 mm 3 mps 730 mmHg 50%
    12:00 +17°C° 0.1 mm 3 mps 730 mmHg 50%
    13:00 +18°C° 0.1 mm 3 mps 730 mmHg 49%
    14:00 +18°C° 0.1 mm 3 mps 729 mmHg 48%
    15:00 +19°C° 0.1 mm 3 mps 729 mmHg 47%
    16:00 +18°C° 0 mm 2 mps 728 mmHg 50%
    17:00 +17°C° 0 mm 2 mps 728 mmHg 53%
    18:00 +16°C° 0 mm 1 mps 728 mmHg 56%
    19:00 +15°C° 0 mm 1 mps 727 mmHg 59%
    20:00 +14°C° 0 mm 2 mps 727 mmHg 61%
    21:00 +13°C° 0 mm 2 mps 727 mmHg 63%
    22:00 +12°C° 0 mm 2 mps 727 mmHg 64%
    23:00 +12°C° 0 mm 2 mps 726 mmHg 64%

    22 April, Monday

    Time Temperature Precipitation Wind Pressure Humidity
    00:00 +11°C° 0 mm 3 mps 725 mmHg 65%
    01:00 +10°C° 0 mm 3 mps 724 mmHg 63%
    02:00 +10°C° 0 mm 3 mps 724 mmHg 62%
    03:00 +10°C° 0 mm 3 mps 723 mmHg 60%
    04:00 +10°C° 0.1 mm 3 mps 722 mmHg 60%
    05:00 +11°C° 0.1 mm 3 mps 722 mmHg 60%
    06:00 +11°C° 0.1 mm 3 mps 722 mmHg 61%
    07:00 +14°C° 0 mm 3 mps 722 mmHg 53%
    08:00 +17°C° 0 mm 3 mps 721 mmHg 46%
    09:00 +20°C° 0 mm 4 mps 721 mmHg 39%
    10:00 +21°C° 0 mm 4 mps 721 mmHg 35%
    11:00 +23°C° 0 mm 5 mps 720 mmHg 32%
    12:00 +24°C° 0 mm 6 mps 720 mmHg 28%
    13:00 +24°C° 0 mm 6 mps 719 mmHg 29%
    14:00 +23°C° 0 mm 6 mps 718 mmHg 29%
    15:00 +23°C° 0 mm 7 mps 718 mmHg 30%
    16:00 +21°C° 0 mm 5 mps 718 mmHg 35%
    17:00 +19°C° 0 mm 4 mps 717 mmHg 41%
    18:00 +18°C° 0 mm 3 mps 717 mmHg 47%
    19:00 +17°C° 0.1 mm 2 mps 717 mmHg 50%
    20:00 +16°C° 0.1 mm 2 mps 717 mmHg 54%
    21:00 +15°C° 0.1 mm 1 mps 718 mmHg 57%
    22:00 +15°C° 0.1 mm 1 mps 717 mmHg 61%
    23:00 +14°C° 0.1 mm 1 mps 717 mmHg 65%

    23 April, Tuesday

    Time Temperature Precipitation Wind Pressure Humidity
    00:00 +14°C° 0.1 mm 1 mps 717 mmHg 69%
    01:00 +14°C° 0 mm 1 mps 716 mmHg 70%
    02:00 +13°C° 0 mm 0 mps 716 mmHg 70%
    03:00 +12°C° 0 mm 0 mps 716 mmHg 70%
    04:00 +13°C° 0 mm 0 mps 716 mmHg 71%
    05:00 +13°C° 0 mm 0 mps 716 mmHg 71%
    06:00 +13°C° 0 mm 0 mps 716 mmHg 71%
    07:00 +15°C° 0 mm 1 mps 717 mmHg 65%
    08:00 +16°C° 0 mm 1 mps 717 mmHg 59%
    09:00 +19°C° 0 mm 1 mps 718 mmHg 53%
    10:00 +19°C° 0 mm 2 mps 718 mmHg 51%
    11:00 +20°C° 0 mm 3 mps 718 mmHg 48%
    12:00 +21°C° 0 mm 3 mps 719 mmHg 45%
    13:00 +20°C° 0.1 mm 4 mps 719 mmHg 48%
    14:00 +20°C° 0.1 mm 5 mps 719 mmHg 51%
    15:00 +20°C° 0.1 mm 6 mps 719 mmHg 54%
    16:00 +17°C° 0.1 mm 5 mps 720 mmHg 61%
    17:00 +16°C° 0.1 mm 5 mps 720 mmHg 67%
    18:00 +15°C° 0.1 mm 5 mps 720 mmHg 74%
    19:00 +14°C° 0 mm 4 mps 721 mmHg 77%
    20:00 +14°C° 0 mm 4 mps 722 mmHg 80%
    21:00 +13°C° 0 mm 3 mps 723 mmHg 82%
    22:00 +13°C° 0 mm 3 mps 723 mmHg 83%
    23:00 +12°C° 0 mm 3 mps 723 mmHg 84%

    24 April, Wednesday

    Time Temperature Precipitation Wind Pressure Humidity
    00:00 +12°C° 0 mm 3 mps 723 mmHg 86%
    01:00 +12°C° 0 mm 3 mps 723 mmHg 85%
    02:00 +12°C° 0 mm 4 mps 724 mmHg 84%
    03:00 +12°C° 0 mm 4 mps 724 mmHg 83%
    04:00 +12°C° 0 mm 4 mps 724 mmHg 83%
    05:00 +12°C° 0 mm 4 mps 724 mmHg 84%
    06:00 +13°C° 0 mm 4 mps 725 mmHg 84%
    07:00 +14°C° 0 mm 5 mps 725 mmHg 76%
    08:00 +15°C° 0 mm 6 mps 725 mmHg 69%
    09:00 +17°C° 0 mm 6 mps 726 mmHg 61%
    10:00 +18°C° 0 mm 7 mps 726 mmHg 54%
    11:00 +21°C° 0 mm 7 mps 726 mmHg 47%
    12:00 +22°C° 0 mm 8 mps 726 mmHg 40%
    13:00 +22°C° 0 mm 8 mps 726 mmHg 39%
    14:00 +23°C° 0 mm 8 mps 725 mmHg 38%
    15:00 +23°C° 0 mm 8 mps 725 mmHg 37%
    16:00 +21°C° 0 mm 7 mps 725 mmHg 41%
    17:00 +20°C° 0 mm 6 mps 724 mmHg 45%
    18:00 +17°C° 0 mm 5 mps 724 mmHg 48%
    19:00 +17°C° 0 mm 5 mps 724 mmHg 50%
    20:00 +16°C° 0 mm 5 mps 725 mmHg 51%
    21:00 +17°C° 0 mm 4 mps 725 mmHg 53%
    22:00 +16°C° 0.1 mm 5 mps 725 mmHg 55%
    23:00 +16°C° 0.1 mm 6 mps 724 mmHg 58%
    Show more